Regional Weather Roundup
Issued by NWS

Home | Current Version | Previous Version | Text Only | Print | Product List | Glossary Off
Versions: 1 2 3 4 5 6 7 8 9 10 11 12 13 14 15 16 17 18 19 20 21 22 23 24 25 26 27 28 29 30 31 32 33 34 35 36 37 38 39 40 41 42 43 44 45 46 47 48 49 50

236
ASUS43 KLOT 292008
RWRIL

ILLINOIS REGIONAL WEATHER ROUNDUP
NATIONAL WEATHER SERVICE CHICAGO/ROMEOVILLE IL
300 PM CDT FRI JUL 29 2016

NOTE: "FAIR" INDICATES FEW OR NO CLOUDS BELOW 12,000 FEET WITH NO
SIGNIFICANT WEATHER AND/OR OBSTRUCTIONS TO VISIBILITY.

* THESE STATIONS ARE NOT UNDER NWS QUALITY CONTROL. THEY ALSO MAY NOT
  REPORT WEATHER SUCH AS PRECIPITATION OR FOG.

ILZ001-002-007-009-015-016-024-292100-
NORTHWEST ILLINOIS

CITY           SKY/WX    TMP DP  RH WIND       PRES   REMARKS
MOLINE         PTSUNNY   80  67  64 W6        29.91F HX  82
STERLING*      CLOUDY    81  71  71 N8        29.91F HX  85
SAVANNA*       CLOUDY    77  69  75 NW8       29.93F
$$

ILZ003-004-008-010-011-017-018-292100-
NORTH CENTRAL ILLINOIS

CITY           SKY/WX    TMP DP  RH WIND       PRES   REMARKS
ROCKFORD       TSTM      74  70  87 CALM      29.94S
FREEPORT*      CLOUDY    71  67  89 N6        29.96F
ROCHELLE*      PTSUNNY   76  69  78 NE14G22   29.94R
DE KALB*       TSTM      69  66  92 E9        29.96R VSB 1
$$

ILZ005-006-012>014-019>023-292100-
NORTHEAST ILLINOIS

CITY           SKY/WX    TMP DP  RH WIND       PRES   REMARKS
CHICAGO-OHARE  TSTM      74  68  81 NE12      29.94R
CHICAGO-MIDWAY TSTM      75  70  84 N10       29.91R
AURORA         HVY RAIN  72  67  84 NE12      29.94R
LANSING*       PTSUNNY   74  66  74 E7        29.91R
JOLIET*        CLOUDY    75  67  76 NE14G22   29.91R
WAUKEGAN       PTSUNNY   73  67  81 NE12      29.95R
DUPAGE AIRPORT HVY RAIN  73  69  87 SE7       29.93R FOG
KANKAKEE*      MOSUNNY   82  71  67 SW8       29.89S HX  87
WHEELING       CLOUDY    73  67  81 NE8       29.95R THUNDER
MORRIS*        CLOUDY    82  70  67 CALM      29.88S HX  85
ROMEOVILLE*    TSTM      70  64  83 NE12      29.92R VSB 1
NORTHERLY ISL    N/A     74  69  85 N5          N/A
$$

LMZ740>746-292100-
SOUTHERN LAKE MICHIGAN

STATION/POSITION SKY/WX   TEMP    WIND        PRES    VSBY  WAVE
                          AIR SEA DIR/SP/G                  HT/PER
                          (F)     (DEG/KT/KT) (MB)    (MI)  (FT/S)
SOUTHERN BUOY              72 74   60/ 16/ 17 1012.9F         3/ 5
WILMETTE HARBOR            74 73   60/  8/ 12   N/A           3/ 5
HARRISON CRIB              75      60/ 12/ 13   N/A
BURNHAM HARBOR             74     360/  6/ 10   N/A
CALUMET HARBOR             74     340/  4/  6 1012.1F
BURNS HARBOR               75      40/ 12     1012.5F
MICHIGAN CITY              74      90/ 12/ 14   N/A
MICHIGAN CITY 6N           70 77  120/ 12/ 19   N/A           3/ 5
ST. JOSEPH                 77 77  130/  6/  8 1012.5S         2
$$

ILZ025>027-034>036-040-047-049-050-058-095>099-292100-
WEST-CENTRAL ILLINOIS

CITY           SKY/WX    TMP DP  RH WIND       PRES   REMARKS
QUINCY         CLOUDY    80  69  69 N9        29.94F HX  83
GALESBURG*     PTSUNNY   79  67  66 SW7       29.93F HX  81
MACOMB*        PTSUNNY   76  66  72 NW9       29.97S
JACKSONVILLE*  PTSUNNY   81  69  67 NW12      29.93F HX  84
PITTSFIELD*    MOSUNNY   81  68  64 NW6       29.94F HX  83
$$

ILZ028>032-037-038-041>044-048-051>054-059>061-292100-
CENTRAL ILLINOIS

CITY           SKY/WX    TMP DP  RH WIND       PRES   REMARKS
PONTIAC        SUNNY     83  71  67 W7        29.90F HX  88
BLOOMINGTON    PTSUNNY   81  69  67 NW13      29.92F HX  84
DECATUR        MOSUNNY   84  66  54 NW10      29.91F HX  86
PEORIA         SUNNY     79  67  66 NW8       29.91F HX  81
LACON*         MOSUNNY   81  65  59 W8        29.90F HX  83
LINCOLN*       MOSUNNY   82  70  67 W5        29.91F HX  86
SPRINGFIELD    PTSUNNY   83  68  60 W6        29.92F HX  86
TAYLORVILLE    PTSUNNY   80  70  72 MISG      29.92F HX  83
$$

ILZ033-039-045-046-055>057-062-063-292100-
EAST-CENTRAL ILLINOIS

CITY           SKY/WX    TMP DP  RH WIND       PRES   REMARKS
CHAMPAIGN      MOSUNNY   82  70  66 W14       29.91F HX  86
MATTOON        MOSUNNY   82  68  62 NW12      29.91F HX  85
PARIS*         PTSUNNY   82  73  72 W6        29.91S HX  87
$$

ILZ079-100>102-292100-
SOUTHWEST ILLINOIS

CITY           SKY/WX    TMP DP  RH WIND       PRES   REMARKS
ALTON          PTSUNNY   81  68  65 NW12      29.94S HX  83
BELLEVILLE     SUNNY     86  71  59 NW8       29.91F HX  91
CAHOKIA*       PTSUNNY   87  67  51 N8        29.92F HX  90
SPARTA*        CLOUDY    84  72  66 NW5       29.93S HX  89
$$

ILZ064>066-069>071-074>076-080>082-084>086-088>090-092>094-292100-
SOUTH-CENTRAL ILLINOIS

CITY           SKY/WX    TMP DP  RH WIND       PRES   REMARKS
CARBONDALE     LGT RAIN  73  68  84 S5        29.93R
CAIRO*         PTSUNNY   86  76  73 NW3       29.90F HX  96
EFFINGHAM*     MOSUNNY   83  69  63 W10       29.93S HX  86
MT. VERNON     CLOUDY    81  72  74 CALM      29.93F HX  84
CENTRALIA*     PTSUNNY   83  71  66 N10       29.91F HX  87
SALEM*         PTSUNNY   84  71  63 NW3       29.92F HX  89
METROPOLIS*    MOSUNNY   87  76  71 W5        29.92S HX  97
$$

ILZ067-068-072-073-078-083-087-091-292100-
SOUTHEAST ILLINOIS

CITY           SKY/WX    TMP DP  RH WIND       PRES   REMARKS
LAWRENCEVILLE  CLOUDY    83  74  74 S9        29.90F HX  89
FLORA*         CLOUDY    85  74  70 NW6       29.92S HX  92
FAIRFIELD*     CLOUDY    77  73  88 S5        29.91F
HARRISBURG*    LGT RAIN  72  71  96 NE6       29.94F
ROBINSON*      CLOUDY    78  73  85 SE7       29.92S HX  80
CARMI*         CLOUDY    71  70  96 CALM      29.93R
$$

ABBREVIATIONS USED IN REMARKS
   TC - TEMPERATURE IN CELSIUS
  WCI - WIND CHILL INDEX
   HX - HEAT INDEX
  VSB - VISIBILITY
$$





USA.gov is the U.S. government's official web portal to all federal, state and local government web resources and services.